Find Starlink 3191

NORAD ID: 49770 Int'l Des: 2021-115 Owner: SPXS Country: US Constellation: starlink operational
LEOCIRCULAR

現在のビュー

3D地球を読み込み中...

Starlink 3191について

説明を読み込み中...

次回通過

Passes for default location (London). Set your location on the main map for personalized predictions.

高度履歴

Loading altitude history...

軌道要素

1 49770U 21115AY 26151.20477534 .00000569 00000-0 53836-4 0 9993
2 49770 53.1945 128.7355 0001362 64.2167 295.8966 15.08839350249254
Epoch: May 31, 2026 • Age: 11 hours

現在のステータス

高度 539.4 km
速度 7.60 km/s
衛星直下点 19.22°N, 10.25°E
打ち上げ日 Dec 2, 2021
運用期間 4.4 years
タイプ internet

技術仕様

分類 Payload
質量 290.00 kg
乾燥質量 270.00 kg
総質量 290.00 kg
長さ 0.20 m
直径 2.80 m
スパン 9.00 m
形状 Box + pan
製造者 SPXS
バスタイプ Starlink
フェーズステータス In Orbit
所有者/国 SPXS/US

Most Searched